Regional Weather Roundup
Issued by NWS

Home | Current Version | Previous Version | Graphics & Text | Print | Product List | Glossary On
Versions: 1 2 3 4 5 6 7 8 9 10 11 12 13 14 15 16 17 18 19 20 21 22 23 24 25 26 27 28 29 30 31 32 33 34 35 36 37 38 39 40 41 42 43 44 45 46 47 48 49 50
000
ASUS43 KOAX 250102
RWRNE

WEATHER ROUNDUP FOR NEBRASKA
NATIONAL WEATHER SERVICE OMAHA NE
800 PM CDT SUN MAY 24 2015

NOTES: SATELLITE DATA IS BEING USED TO AUGMENT CLOUD COVER ABOVE
       12000 FEET.
       "FAIR" INDICATES FEW OR NO CLOUDS BELOW 12,000 FEET WITH NO
       SIGNIFICANT WEATHER AND/OR OBSTRUCTIONS TO VISIBILITY.

  * THESE STATIONS DO NOT REPORT WEATHER SUCH AS RAIN...SNOW OR FOG.

NEZ001>004-019>022-054>056-250200-
NEBRASKA PANHANDLE

CITY           SKY/WX    TMP DP  RH WIND       PRES   REMARKS
SCOTTSBLUFF    CLOUDY    56  44  64 W13       29.80R
ALLIANCE       CLOUDY    64  52  64 S6        29.75F
CHADRON        CLOUDY    58  54  86 N15       29.80R
SIDNEY         CLOUDY    52  48  86 NE5       29.81F
$$

NEZ057>060-069>072-079>082-250200-
SOUTHWEST NEBRASKA

CITY           SKY/WX    TMP DP  RH WIND       PRES   REMARKS
NORTH PLATTE   MOCLDY    64  55  72 SE12      29.78S
MCCOOK         MOCLDY    66  58  75 SE15      29.76S
$$

NEZ005>010-023>029-035>040-094-250200-
NORTH CENTRAL NEBRASKA

CITY           SKY/WX    TMP DP  RH WIND       PRES   REMARKS
VALENTINE      CLOUDY    62  57  83 E12       29.80S
AINSWORTH      CLOUDY    62  59  92 E8        29.80S
BROKEN BOW     MOCLDY    65  58  78 SE8       29.78S
ORD            CLOUDY    64  58  80 E6        29.76F
$$

NEZ041-046>049-061>064-073>077-083>087-250200-
SOUTH CENTRAL NEBRASKA

CITY           SKY/WX    TMP DP  RH WIND       PRES   REMARKS
GRAND ISLAND   CLOUDY    65  58  78 S6        29.79F
HASTINGS       CLOUDY    64  58  80 SE6       29.78F
KEARNEY *      CLOUDY    63  57  82 SE8       29.79S
$$

NEZ011>018-030>034-042>045-250200-
NORTHEAST NEBRASKA

CITY           SKY/WX    TMP DP  RH WIND       PRES   REMARKS
NORFOLK        CLOUDY    64  59  83 W3        29.78S
BLAIR          CLOUDY    66  61  84 CALM      29.77F
COLUMBUS *     CLOUDY    66  55  68 SW3       29.81F
FREMONT        CLOUDY    67  61  79 CALM      29.78S
TEKAMAH        CLOUDY    67  62  84 W5        29.77S
$$

NEZ050>053-065>068-078-088>093-250200-
SOUTHEAST NEBRASKA

CITY           SKY/WX    TMP DP  RH WIND       PRES   REMARKS
LINCOLN        CLOUDY    67  61  81 SW5       29.78F
OMAHA EPPLEY   CLOUDY    69  61  75 SW3       29.77F
FALLS CITY     CLOUDY    66  61  84 S5        29.78F
$$

NEZ044-045-051>053-067-250200-
OMAHA AREA

CITY           SKY/WX    TMP DP  RH WIND       PRES   REMARKS
OMAHA EPPLEY   CLOUDY    69  61  75 SW3       29.77F
BLAIR          CLOUDY    66  61  84 CALM      29.77F
FREMONT        CLOUDY    67  61  79 CALM      29.78S
OFFUTT AFB     CLOUDY    69  61  77 S7        29.76F
$$


USA.gov is the U.S. government's official web portal to all federal, state and local government web resources and services.